Time,TemperatureF,DewpointF,PressureIn,WindDirection,WindDirectionDegrees,WindSpeedMPH,WindSpeedGustMPH,Humidity,HourlyPrecipIn,Conditions,Clouds,dailyrainin,SoftwareType,DateUTC
2013-01-04 00:00:00,14.8,11.4,30.32,WSW,253,6.0,7.0,86,0.00,,,0.00,Wunderground v.1.15,2013-01-04 06:00:00,
2013-01-04 00:10:00,14.7,11.3,30.32,WSW,252,6.0,6.0,86,0.00,,,0.00,Wunderground v.1.15,2013-01-04 06:10:00,
2013-01-04 00:20:00,14.5,11.1,30.32,WSW,251,5.0,6.0,86,0.00,,,0.00,Wunderground v.1.15,2013-01-04 06:20:00,
2013-01-04 00:25:00,14.5,11.1,30.32,West,269,5.0,7.0,86,0.00,,,0.00,Wunderground v.1.15,2013-01-04 06:25:00,
2013-01-04 00:35:00,14.4,11.0,30.32,WSW,237,6.0,7.0,86,0.00,,,0.00,Wunderground v.1.15,2013-01-04 06:35:00,
2013-01-04 00:40:00,14.2,10.8,30.32,WNW,283,6.0,6.0,86,0.00,,,0.00,Wunderground v.1.15,2013-01-04 06:40:00,
2013-01-04 00:50:00,14.0,10.6,30.32,West,267,5.0,5.0,86,0.00,,,0.00,Wunderground v.1.15,2013-01-04 06:50:00,
2013-01-04 00:55:00,13.7,10.3,30.32,WSW,253,5.0,6.0,86,0.00,,,0.00,Wunderground v.1.15,2013-01-04 06:55:00,
2013-01-04 01:00:00,13.5,10.1,30.32,WSW,257,4.0,4.0,86,0.00,,,0.00,Wunderground v.1.15,2013-01-04 07:00:00,
2013-01-04 01:10:00,13.3,9.9,30.32,WSW,255,5.0,6.0,86,0.00,,,0.00,Wunderground v.1.15,2013-01-04 07:10:00,
2013-01-04 01:15:00,13.3,9.9,30.32,West,262,5.0,6.0,86,0.00,,,0.00,Wunderground v.1.15,2013-01-04 07:15:00,
2013-01-04 01:25:00,13.0,9.6,30.32,WSW,246,4.0,5.0,86,0.00,,,0.00,Wunderground v.1.15,2013-01-04 07:25:00,
2013-01-04 01:30:00,12.9,9.2,30.32,WSW,240,5.0,5.0,85,0.00,,,0.00,Wunderground v.1.15,2013-01-04 07:30:00,
2013-01-04 01:40:00,12.5,9.1,30.32,WSW,238,4.0,4.0,86,0.00,,,0.00,Wunderground v.1.15,2013-01-04 07:40:00,
2013-01-04 01:50:00,12.2,8.8,30.32,SSW,209,3.0,3.0,86,0.00,,,0.00,Wunderground v.1.15,2013-01-04 07:50:00,
2013-01-04 02:00:00,11.8,8.7,30.31,WSW,243,5.0,6.0,87,0.00,,,0.00,Wunderground v.1.15,2013-01-04 08:00:00,
2013-01-04 02:10:00,11.5,8.1,30.31,SW,233,6.0,6.0,86,0.00,,,0.00,Wunderground v.1.15,2013-01-04 08:10:00,
2013-01-04 02:20:00,11.7,8.3,30.31,WSW,251,5.0,6.0,86,0.00,,,0.00,Wunderground v.1.15,2013-01-04 08:20:00,
2013-01-04 02:25:00,11.7,8.3,30.31,SW,236,6.0,7.0,86,0.00,,,0.00,Wunderground v.1.15,2013-01-04 08:25:00,
2013-01-04 02:35:00,11.5,8.1,30.31,WSW,240,5.0,6.0,86,0.00,,,0.00,Wunderground v.1.15,2013-01-04 08:35:00,
2013-01-04 02:40:00,11.4,8.0,30.32,WSW,239,5.0,5.0,86,0.00,,,0.00,Wunderground v.1.15,2013-01-04 08:40:00,
2013-01-04 02:50:00,11.3,7.9,30.32,SW,224,5.0,5.0,86,0.00,,,0.00,Wunderground v.1.15,2013-01-04 08:50:00,
2013-01-04 03:00:00,11.0,7.6,30.32,SW,224,4.0,6.0,86,0.00,,,0.00,Wunderground v.1.15,2013-01-04 09:00:00,
2013-01-04 03:10:00,11.0,7.9,30.31,WSW,256,5.0,5.0,87,0.00,,,0.00,Wunderground v.1.15,2013-01-04 09:10:00,
2013-01-04 03:20:00,11.1,7.7,30.31,SW,232,5.0,6.0,86,0.00,,,0.00,Wunderground v.1.15,2013-01-04 09:20:00,
2013-01-04 03:30:00,11.0,7.6,30.31,SW,236,4.0,4.0,86,0.00,,,0.00,Wunderground v.1.15,2013-01-04 09:30:00,
2013-01-04 03:35:00,10.9,7.5,30.31,SW,236,4.0,5.0,86,0.00,,,0.00,Wunderground v.1.15,2013-01-04 09:35:00,
2013-01-04 03:45:00,10.8,7.4,30.31,WSW,239,5.0,5.0,86,0.00,,,0.00,Wunderground v.1.15,2013-01-04 09:45:00,
2013-01-04 03:50:00,10.7,7.3,30.30,SW,236,4.0,6.0,86,0.00,,,0.00,Wunderground v.1.15,2013-01-04 09:50:00,
2013-01-04 04:00:00,10.6,7.2,30.30,WSW,243,4.0,6.0,86,0.00,,,0.00,Wunderground v.1.15,2013-01-04 10:00:00,
2013-01-04 04:05:00,10.7,7.6,30.30,West,263,5.0,6.0,87,0.00,,,0.00,Wunderground v.1.15,2013-01-04 10:05:00,
2013-01-04 04:15:00,11.0,7.6,30.31,WSW,245,5.0,6.0,86,0.00,,,0.00,Wunderground v.1.15,2013-01-04 10:15:00,
2013-01-04 04:25:00,10.8,7.4,30.31,WSW,250,6.0,6.0,86,0.00,,,0.00,Wunderground v.1.15,2013-01-04 10:25:00,
2013-01-04 04:35:00,10.6,7.2,30.31,WSW,243,5.0,5.0,86,0.00,,,0.00,Wunderground v.1.15,2013-01-04 10:35:00,
2013-01-04 04:40:00,10.6,7.2,30.31,SW,236,5.0,6.0,86,0.00,,,0.00,Wunderground v.1.15,2013-01-04 10:40:00,
2013-01-04 04:50:00,10.5,7.1,30.30,SW,222,4.0,4.0,86,0.00,,,0.00,Wunderground v.1.15,2013-01-04 10:50:00,
2013-01-04 04:55:00,10.4,7.3,30.30,SW,218,4.0,4.0,87,0.00,,,0.00,Wunderground v.1.15,2013-01-04 10:55:00,
2013-01-04 05:00:00,10.4,7.3,30.30,SW,221,4.0,4.0,87,0.00,,,0.00,Wunderground v.1.15,2013-01-04 11:00:00,
2013-01-04 05:10:00,10.2,7.1,30.30,SSW,212,4.0,4.0,87,0.00,,,0.00,Wunderground v.1.15,2013-01-04 11:10:00,
2013-01-04 05:15:00,10.2,7.1,30.30,SSW,204,4.0,5.0,87,0.00,,,0.00,Wunderground v.1.15,2013-01-04 11:15:00,
2013-01-04 05:25:00,10.4,7.3,30.30,WSW,248,5.0,6.0,87,0.00,,,0.00,Wunderground v.1.15,2013-01-04 11:25:00,
2013-01-04 05:30:00,10.4,7.3,30.30,SSW,207,5.0,5.0,87,0.00,,,0.00,Wunderground v.1.15,2013-01-04 11:30:00,
2013-01-04 05:35:00,10.5,7.4,30.30,SW,215,5.0,5.0,87,0.00,,,0.00,Wunderground v.1.15,2013-01-04 11:35:00,
2013-01-04 05:45:00,10.7,7.6,30.30,WSW,242,5.0,8.0,87,0.00,,,0.00,Wunderground v.1.15,2013-01-04 11:45:00,
2013-01-04 05:50:00,10.9,7.8,30.30,WSW,245,6.0,6.0,87,0.00,,,0.00,Wunderground v.1.15,2013-01-04 11:50:00,
2013-01-04 06:00:00,11.2,8.1,30.30,WSW,257,6.0,6.0,87,0.00,,,0.00,Wunderground v.1.15,2013-01-04 12:00:00,
2013-01-04 06:10:00,11.4,8.0,30.30,SW,236,6.0,6.0,86,0.00,,,0.00,Wunderground v.1.15,2013-01-04 12:10:00,
2013-01-04 06:15:00,11.4,8.0,30.30,WSW,238,6.0,6.0,86,0.00,,,0.00,Wunderground v.1.15,2013-01-04 12:15:00,
2013-01-04 06:25:00,11.5,8.1,30.30,SW,229,6.0,10.0,86,0.00,,,0.00,Wunderground v.1.15,2013-01-04 12:25:00,
2013-01-04 06:35:00,11.7,8.3,30.30,WSW,238,7.0,8.0,86,0.00,,,0.00,Wunderground v.1.15,2013-01-04 12:35:00,
2013-01-04 06:45:00,11.9,8.5,30.29,SSW,207,6.0,7.0,86,0.00,,,0.00,Wunderground v.1.15,2013-01-04 12:45:00,
2013-01-04 06:55:00,12.1,8.7,30.30,SW,229,6.0,7.0,86,0.00,,,0.00,Wunderground v.1.15,2013-01-04 12:55:00,
2013-01-04 07:00:00,12.2,9.1,30.30,SW,229,5.0,5.0,87,0.00,,,0.00,Wunderground v.1.15,2013-01-04 13:00:00,
2013-01-04 07:10:00,12.3,9.2,30.29,WSW,243,5.0,5.0,87,0.00,,,0.00,Wunderground v.1.15,2013-01-04 13:10:00,
2013-01-04 07:15:00,12.4,9.3,30.29,SW,229,5.0,5.0,87,0.00,,,0.00,Wunderground v.1.15,2013-01-04 13:15:00,
2013-01-04 07:25:00,12.5,9.4,30.29,SW,224,5.0,5.0,87,0.00,,,0.00,Wunderground v.1.15,2013-01-04 13:25:00,
2013-01-04 07:35:00,12.6,9.5,30.29,SSW,208,5.0,5.0,87,0.00,,,0.00,Wunderground v.1.15,2013-01-04 13:35:00,
2013-01-04 07:45:00,13.1,10.0,30.30,SW,232,5.0,5.0,87,0.00,,,0.00,Wunderground v.1.15,2013-01-04 13:45:00,
2013-01-04 07:55:00,13.6,10.5,30.30,WSW,242,6.0,6.0,87,0.00,,,0.00,Wunderground v.1.15,2013-01-04 13:55:00,
2013-01-04 08:00:00,13.9,10.7,30.30,SW,235,5.0,7.0,87,0.00,,,0.00,Wunderground v.1.15,2013-01-04 14:00:00,
2013-01-04 08:10:00,14.5,11.1,30.30,WSW,249,6.0,10.0,86,0.00,,,0.00,Wunderground v.1.15,2013-01-04 14:10:00,
2013-01-04 08:20:00,14.9,11.5,30.29,WSW,237,6.0,6.0,86,0.00,,,0.00,Wunderground v.1.15,2013-01-04 14:20:00,
2013-01-04 08:25:00,15.0,11.6,30.29,SW,222,5.0,6.0,86,0.00,,,0.00,Wunderground v.1.15,2013-01-04 14:25:00,
2013-01-04 08:35:00,15.3,11.9,30.29,South,186,4.0,5.0,86,0.00,,,0.00,Wunderground v.1.15,2013-01-04 14:35:00,
2013-01-04 08:45:00,16.1,12.7,30.29,SW,225,4.0,4.0,86,0.00,,,0.00,Wunderground v.1.15,2013-01-04 14:45:00,
2013-01-04 08:55:00,17.5,14.0,30.29,SW,218,6.0,6.0,86,0.00,,,0.00,Wunderground v.1.15,2013-01-04 14:55:00,
2013-01-04 09:00:00,18.2,14.7,30.29,SW,222,7.0,7.0,86,0.00,,,0.00,Wunderground v.1.15,2013-01-04 15:00:00,
2013-01-04 09:10:00,19.2,15.2,30.29,SW,224,7.0,7.0,84,0.00,,,0.00,Wunderground v.1.15,2013-01-04 15:10:00,
2013-01-04 09:20:00,20.1,16.0,30.30,WSW,249,8.0,10.0,84,0.00,,,0.00,Wunderground v.1.15,2013-01-04 15:20:00,
2013-01-04 09:30:00,20.8,16.5,30.30,SW,235,9.0,9.0,83,0.00,,,0.00,Wunderground v.1.15,2013-01-04 15:30:00,
2013-01-04 09:40:00,22.0,17.6,30.31,WSW,246,8.0,9.0,83,0.00,,,0.00,Wunderground v.1.15,2013-01-04 15:40:00,
2013-01-04 09:50:00,22.9,18.2,30.31,WSW,239,10.0,14.0,82,0.00,,,0.00,Wunderground v.1.15,2013-01-04 15:50:00,
2013-01-04 09:55:00,23.4,18.7,30.30,West,262,10.0,14.0,82,0.00,,,0.00,Wunderground v.1.15,2013-01-04 15:55:00,
2013-01-04 10:00:00,23.9,19.2,30.30,WSW,238,10.0,10.0,82,0.00,,,0.00,Wunderground v.1.15,2013-01-04 16:00:00,
2013-01-04 10:10:00,24.8,19.5,30.30,SW,235,10.0,11.0,80,0.00,,,0.00,Wunderground v.1.15,2013-01-04 16:10:00,
2013-01-04 10:15:00,25.1,19.8,30.30,WSW,239,10.0,12.0,80,0.00,,,0.00,Wunderground v.1.15,2013-01-04 16:15:00,
2013-01-04 10:25:00,25.8,20.2,30.30,WSW,238,10.0,11.0,79,0.00,,,0.00,Wunderground v.1.15,2013-01-04 16:25:00,
2013-01-04 10:35:00,26.5,20.6,30.30,WSW,245,10.0,10.0,78,0.00,,,0.00,Wunderground v.1.15,2013-01-04 16:35:00,
2013-01-04 10:45:00,27.6,21.3,30.29,SW,236,9.0,10.0,77,0.00,,,0.00,Wunderground v.1.15,2013-01-04 16:45:00,
2013-01-04 10:55:00,28.5,21.6,30.28,WSW,240,10.0,17.0,75,0.00,,,0.00,Wunderground v.1.15,2013-01-04 16:55:00,
2013-01-04 11:00:00,28.7,21.5,30.28,West,259,11.0,13.0,74,0.00,,,0.00,Wunderground v.1.15,2013-01-04 17:00:00,
2013-01-04 11:05:00,29.0,21.7,30.28,SW,232,11.0,13.0,74,0.00,,,0.00,Wunderground v.1.15,2013-01-04 17:05:00,
2013-01-04 11:15:00,29.4,21.8,30.27,WSW,257,10.0,11.0,73,0.00,,,0.00,Wunderground v.1.15,2013-01-04 17:15:00,
2013-01-04 11:20:00,30.0,22.1,30.27,WSW,246,11.0,14.0,72,0.00,,,0.00,Wunderground v.1.15,2013-01-04 17:20:00,
2013-01-04 11:30:00,30.2,21.9,30.27,WSW,242,12.0,12.0,71,0.00,,,0.00,Wunderground v.1.15,2013-01-04 17:30:00,
2013-01-04 11:35:00,30.8,22.5,30.27,SW,224,11.0,12.0,71,0.00,,,0.00,Wunderground v.1.15,2013-01-04 17:35:00,
2013-01-04 11:45:00,31.4,22.7,30.27,WSW,246,12.0,14.0,70,0.00,,,0.00,Wunderground v.1.15,2013-01-04 17:45:00,
2013-01-04 11:55:00,31.7,22.3,30.26,WSW,257,12.0,12.0,68,0.00,,,0.00,Wunderground v.1.15,2013-01-04 17:55:00,
2013-01-04 12:00:00,32.0,22.3,30.26,WSW,239,12.0,13.0,67,0.00,,,0.00,Wunderground v.1.15,2013-01-04 18:00:00,
2013-01-04 12:10:00,32.6,22.5,30.26,WSW,252,13.0,16.0,66,0.00,,,0.00,Wunderground v.1.15,2013-01-04 18:10:00,
2013-01-04 12:15:00,33.1,22.6,30.25,WSW,256,13.0,16.0,65,0.00,,,0.00,Wunderground v.1.15,2013-01-04 18:15:00,
2013-01-04 12:25:00,33.1,21.9,30.25,WSW,253,12.0,15.0,63,0.00,,,0.00,Wunderground v.1.15,2013-01-04 18:25:00,
2013-01-04 12:35:00,33.3,22.4,30.25,West,269,12.0,16.0,64,0.00,,,0.00,Wunderground v.1.15,2013-01-04 18:35:00,
2013-01-04 12:45:00,33.2,22.3,30.25,WSW,253,14.0,14.0,64,0.00,,,0.00,Wunderground v.1.15,2013-01-04 18:45:00,
2013-01-04 12:55:00,33.3,22.1,30.25,WSW,239,14.0,19.0,63,0.00,,,0.00,Wunderground v.1.15,2013-01-04 18:55:00,
2013-01-04 13:00:00,33.6,22.3,30.24,WSW,255,14.0,14.0,63,0.00,,,0.00,Wunderground v.1.15,2013-01-04 19:00:00,
2013-01-04 13:10:00,33.5,21.9,30.24,WSW,246,13.0,13.0,62,0.00,,,0.00,Wunderground v.1.15,2013-01-04 19:10:00,
2013-01-04 13:20:00,33.7,22.1,30.24,WSW,253,11.0,15.0,62,0.00,,,0.00,Wunderground v.1.15,2013-01-04 19:20:00,
2013-01-04 13:30:00,33.6,22.0,30.24,WSW,248,13.0,14.0,62,0.00,,,0.00,Wunderground v.1.15,2013-01-04 19:30:00,
2013-01-04 13:35:00,33.9,22.6,30.23,WSW,250,13.0,14.0,63,0.00,,,0.00,Wunderground v.1.15,2013-01-04 19:35:00,
2013-01-04 13:45:00,34.1,22.8,30.23,SSW,208,12.0,15.0,63,0.00,,,0.00,Wunderground v.1.15,2013-01-04 19:45:00,
2013-01-04 13:55:00,34.3,21.8,30.23,West,263,11.0,16.0,60,0.00,,,0.00,Wunderground v.1.15,2013-01-04 19:55:00,
2013-01-04 14:00:00,34.2,22.1,30.23,WSW,250,12.0,14.0,61,0.00,,,0.00,Wunderground v.1.15,2013-01-04 20:00:00,
2013-01-04 14:10:00,34.1,22.4,30.23,South,177,12.0,12.0,62,0.00,,,0.00,Wunderground v.1.15,2013-01-04 20:10:00,
2013-01-04 14:20:00,34.2,22.5,30.23,WSW,252,11.0,14.0,62,0.00,,,0.00,Wunderground v.1.15,2013-01-04 20:20:00,
2013-01-04 14:25:00,34.4,22.7,30.23,SW,236,10.0,14.0,62,0.00,,,0.00,Wunderground v.1.15,2013-01-04 20:25:00,
2013-01-04 14:35:00,34.5,22.4,30.23,WSW,239,10.0,11.0,61,0.00,,,0.00,Wunderground v.1.15,2013-01-04 20:35:00,
2013-01-04 14:45:00,34.3,22.2,30.23,WSW,255,11.0,15.0,61,0.00,,,0.00,Wunderground v.1.15,2013-01-04 20:45:00,
2013-01-04 14:55:00,34.0,22.3,30.24,WSW,256,12.0,16.0,62,0.00,,,0.00,Wunderground v.1.15,2013-01-04 20:55:00,
2013-01-04 15:00:00,33.9,22.2,30.23,WSW,256,12.0,12.0,62,0.00,,,0.00,Wunderground v.1.15,2013-01-04 21:00:00,
2013-01-04 15:10:00,33.8,22.1,30.24,West,264,12.0,12.0,62,0.00,,,0.00,Wunderground v.1.15,2013-01-04 21:10:00,
2013-01-04 15:15:00,33.9,22.2,30.24,WSW,249,12.0,12.0,62,0.00,,,0.00,Wunderground v.1.15,2013-01-04 21:15:00,
2013-01-04 15:25:00,33.7,22.1,30.24,SW,218,12.0,12.0,62,0.00,,,0.00,Wunderground v.1.15,2013-01-04 21:25:00,
2013-01-04 15:30:00,33.7,22.1,30.24,WSW,249,10.0,12.0,62,0.00,,,0.00,Wunderground v.1.15,2013-01-04 21:30:00,
2013-01-04 15:40:00,33.5,22.2,30.24,SW,221,10.0,10.0,63,0.00,,,0.00,Wunderground v.1.15,2013-01-04 21:40:00,
2013-01-04 15:45:00,33.3,22.4,30.25,WSW,243,10.0,10.0,64,0.00,,,0.00,Wunderground v.1.15,2013-01-04 21:45:00,
2013-01-04 15:55:00,33.1,22.2,30.25,WSW,240,10.0,11.0,64,0.00,,,0.00,Wunderground v.1.15,2013-01-04 21:55:00,
2013-01-04 16:00:00,33.1,22.2,30.25,WSW,242,9.0,11.0,64,0.00,,,0.00,Wunderground v.1.15,2013-01-04 22:00:00,
2013-01-04 16:10:00,32.9,22.4,30.25,SW,236,8.0,9.0,65,0.00,,,0.00,Wunderground v.1.15,2013-01-04 22:10:00,
2013-01-04 16:15:00,32.6,22.1,30.25,SW,235,8.0,10.0,65,0.00,,,0.00,Wunderground v.1.15,2013-01-04 22:15:00,
2013-01-04 16:25:00,32.3,22.2,30.25,WSW,239,8.0,8.0,66,0.00,,,0.00,Wunderground v.1.15,2013-01-04 22:25:00,
2013-01-04 16:35:00,31.6,22.2,30.25,SW,218,6.0,7.0,68,0.00,,,0.00,Wunderground v.1.15,2013-01-04 22:35:00,
2013-01-04 16:45:00,30.8,22.2,30.25,SSW,210,5.0,6.0,70,0.00,,,0.00,Wunderground v.1.15,2013-01-04 22:45:00,
2013-01-04 16:55:00,30.2,21.9,30.25,WSW,237,5.0,6.0,71,0.00,,,0.00,Wunderground v.1.15,2013-01-04 22:55:00,
2013-01-04 17:00:00,29.9,21.6,30.25,WSW,246,4.0,4.0,71,0.00,,,0.00,Wunderground v.1.15,2013-01-04 23:00:00,
2013-01-04 17:10:00,29.3,21.7,30.25,SW,226,4.0,4.0,73,0.00,,,0.00,Wunderground v.1.15,2013-01-04 23:10:00,
2013-01-04 17:15:00,29.0,21.4,30.25,SW,226,4.0,4.0,73,0.00,,,0.00,Wunderground v.1.15,2013-01-04 23:15:00,
2013-01-04 17:25:00,28.9,21.7,30.26,WSW,245,4.0,6.0,74,0.00,,,0.00,Wunderground v.1.15,2013-01-04 23:25:00,
2013-01-04 17:35:00,28.8,21.6,30.26,SW,230,5.0,5.0,74,0.00,,,0.00,Wunderground v.1.15,2013-01-04 23:35:00,
2013-01-04 17:45:00,28.6,21.7,30.26,SW,217,5.0,6.0,75,0.00,,,0.00,Wunderground v.1.15,2013-01-04 23:45:00,
2013-01-04 17:50:00,28.4,21.5,30.26,SW,226,5.0,6.0,75,0.00,,,0.00,Wunderground v.1.15,2013-01-04 23:50:00,
2013-01-04 18:00:00,28.0,21.4,30.26,SW,233,4.0,4.0,76,0.00,,,0.00,Wunderground v.1.15,2013-01-05 00:00:00,
2013-01-04 18:10:00,27.4,21.1,30.27,SW,236,3.0,3.0,77,0.00,,,0.00,Wunderground v.1.15,2013-01-05 00:10:00,
2013-01-04 18:20:00,27.1,21.2,30.27,SW,226,3.0,3.0,78,0.00,,,0.00,Wunderground v.1.15,2013-01-05 00:20:00,
2013-01-04 18:30:00,26.7,21.1,30.27,SW,222,2.0,2.0,79,0.00,,,0.00,Wunderground v.1.15,2013-01-05 00:30:00,
2013-01-04 18:40:00,26.4,20.8,30.27,SW,221,3.0,4.0,79,0.00,,,0.00,Wunderground v.1.15,2013-01-05 00:40:00,
2013-01-04 18:50:00,26.1,20.5,30.27,SW,225,3.0,3.0,79,0.00,,,0.00,Wunderground v.1.15,2013-01-05 00:50:00,
2013-01-04 19:00:00,25.8,20.5,30.27,SSW,203,2.0,2.0,80,0.00,,,0.00,Wunderground v.1.15,2013-01-05 01:00:00,
2013-01-04 19:10:00,25.5,20.5,30.27,SSW,192,0.0,0.0,81,0.00,,,0.00,Wunderground v.1.15,2013-01-05 01:10:00,
2013-01-04 19:20:00,25.2,20.5,30.27,SSW,207,2.0,2.0,82,0.00,,,0.00,Wunderground v.1.15,2013-01-05 01:20:00,
2013-01-04 19:30:00,25.0,20.6,30.27,SSW,195,2.0,3.0,83,0.00,,,0.00,Wunderground v.1.15,2013-01-05 01:30:00,
2013-01-04 19:40:00,24.9,20.5,30.27,SSW,207,2.0,2.0,83,0.00,,,0.00,Wunderground v.1.15,2013-01-05 01:40:00,
2013-01-04 19:50:00,24.9,20.5,30.27,SW,217,2.0,2.0,83,0.00,,,0.00,Wunderground v.1.15,2013-01-05 01:50:00,
2013-01-04 19:55:00,24.6,20.5,30.27,SSW,195,2.0,2.0,84,0.00,,,0.00,Wunderground v.1.15,2013-01-05 01:55:00,
2013-01-04 20:00:00,24.5,20.4,30.27,SSW,198,2.0,2.0,84,0.00,,,0.00,Wunderground v.1.15,2013-01-05 02:00:00,
2013-01-04 20:10:00,24.3,20.2,30.27,SSW,207,2.0,3.0,84,0.00,,,0.00,Wunderground v.1.15,2013-01-05 02:10:00,
2013-01-04 20:15:00,24.2,20.1,30.27,SSW,207,2.0,3.0,84,0.00,,,0.00,Wunderground v.1.15,2013-01-05 02:15:00,
2013-01-04 20:25:00,23.9,19.8,30.28,SSW,200,2.0,2.0,84,0.00,,,0.00,Wunderground v.1.15,2013-01-05 02:25:00,
2013-01-04 20:30:00,23.8,19.9,30.28,SSW,200,2.0,2.0,85,0.00,,,0.00,Wunderground v.1.15,2013-01-05 02:30:00,
2013-01-04 20:40:00,23.6,19.8,30.28,SSW,194,1.0,1.0,85,0.00,,,0.00,Wunderground v.1.15,2013-01-05 02:40:00,
2013-01-04 20:45:00,23.4,19.6,30.28,South,190,1.0,1.0,85,0.00,,,0.00,Wunderground v.1.15,2013-01-05 02:45:00,
2013-01-04 20:55:00,23.1,19.5,30.28,SSW,207,0.0,1.0,86,0.00,,,0.00,Wunderground v.1.15,2013-01-05 02:55:00,
2013-01-04 21:00:00,22.9,19.3,30.28,SW,214,0.0,0.0,86,0.00,,,0.00,Wunderground v.1.15,2013-01-05 03:00:00,
2013-01-04 21:10:00,22.6,19.3,30.28,South,170,0.0,1.0,87,0.00,,,0.00,Wunderground v.1.15,2013-01-05 03:10:00,
2013-01-04 21:15:00,22.6,19.3,30.28,SSW,211,1.0,3.0,87,0.00,,,0.00,Wunderground v.1.15,2013-01-05 03:15:00,
2013-01-04 21:25:00,22.9,19.6,30.28,SW,221,2.0,2.0,87,0.00,,,0.00,Wunderground v.1.15,2013-01-05 03:25:00,
2013-01-04 21:30:00,22.8,19.5,30.28,SSW,203,2.0,2.0,87,0.00,,,0.00,Wunderground v.1.15,2013-01-05 03:30:00,
2013-01-04 21:40:00,22.7,19.4,30.28,SSW,209,1.0,2.0,87,0.00,,,0.00,Wunderground v.1.15,2013-01-05 03:40:00,
2013-01-04 21:50:00,22.7,19.4,30.28,SW,218,2.0,2.0,87,0.00,,,0.00,Wunderground v.1.15,2013-01-05 03:50:00,
2013-01-04 22:00:00,22.7,19.4,30.27,SSW,207,1.0,2.0,87,0.00,,,0.00,Wunderground v.1.15,2013-01-05 04:00:00,
2013-01-04 22:10:00,22.4,19.1,30.27,SSW,199,1.0,1.0,87,0.00,,,0.00,Wunderground v.1.15,2013-01-05 04:10:00,
2013-01-04 22:20:00,22.4,19.1,30.28,SSW,199,2.0,2.0,87,0.00,,,0.00,Wunderground v.1.15,2013-01-05 04:20:00,
2013-01-04 22:30:00,22.4,19.1,30.27,SSW,194,1.0,1.0,87,0.00,,,0.00,Wunderground v.1.15,2013-01-05 04:30:00,
2013-01-04 22:35:00,22.4,19.1,30.27,South,183,1.0,1.0,87,0.00,,,0.00,Wunderground v.1.15,2013-01-05 04:35:00,
2013-01-04 22:45:00,22.1,18.8,30.27,SSW,209,1.0,1.0,87,0.00,,,0.00,Wunderground v.1.15,2013-01-05 04:45:00,
2013-01-04 22:50:00,22.1,18.8,30.27,SW,217,1.0,2.0,87,0.00,,,0.00,Wunderground v.1.15,2013-01-05 04:50:00,
2013-01-04 23:00:00,22.0,19.0,30.27,SSW,192,2.0,2.0,88,0.00,,,0.00,Wunderground v.1.15,2013-01-05 05:00:00,
2013-01-04 23:05:00,22.2,19.2,30.27,SSW,198,2.0,2.0,88,0.00,,,0.00,Wunderground v.1.15,2013-01-05 05:05:00,
2013-01-04 23:15:00,22.4,19.1,30.26,SW,215,3.0,4.0,87,0.00,,,0.00,Wunderground v.1.15,2013-01-05 05:15:00,
2013-01-04 23:20:00,22.3,19.0,30.26,SW,218,2.0,2.0,87,0.00,,,0.00,Wunderground v.1.15,2013-01-05 05:20:00,
2013-01-04 23:25:00,22.2,18.9,30.27,South,186,2.0,2.0,87,0.00,,,0.00,Wunderground v.1.15,2013-01-05 05:25:00,
2013-01-04 23:30:00,22.1,18.8,30.27,SSW,208,2.0,2.0,87,0.00,,,0.00,Wunderground v.1.15,2013-01-05 05:30:00,
2013-01-04 23:40:00,22.1,18.8,30.27,South,177,2.0,2.0,87,0.00,,,0.00,Wunderground v.1.15,2013-01-05 05:40:00,
2013-01-04 23:50:00,22.2,18.9,30.27,South,170,2.0,2.0,87,0.00,,,0.00,Wunderground v.1.15,2013-01-05 05:50:00,